#timestamp,LO_Frequency,Hit,StdDev 
1662170415.0,286047000.6,P
1662170415.9,286047000.6,N
1662170435.8,286046999.9,N
1662170455.6,286047002.4,N
1662170475.4,286047002.3,N
1662170495.3,286047002.8,N
1662170515.1,286046999.7,N
1662170535.8,286047002.7,N
1662170555.7,286046999.7,N
1662170575.5,286046999.0,N
1662170595.4,286046998.4,N
1662170615.2,286046998.4,N
1662170635.0,286046998.4,N
1662170635.9,286046998.4,N
1662170655.8,286046998.3,N
1662170675.6,286047001.1,N
1662170695.4,286047000.6,N
1662170715.3,286047002.7,N
1662170735.1,286047000.9,N
1662170755.9,286046999.0,N
1662170775.7,286046998.7,N
1662170795.5,286047001.1,N
1662170815.4,286046998.2,N
1662170835.2,286047002.3,N
1662170855.0,286047002.7,N
1662170856.0,286047002.7,N
1662170875.8,286046999.9,N
1662170895.6,286047000.7,N
1662170915.5,286047000.1,N
1662170935.3,286046999.8,N
1662170955.1,286046999.9,N
1662170975.9,286047000.1,N
1662170995.7,286047001.1,N
1662171015.6,286047001.2,N
1662171035.4,286046998.1,N
1662171055.2,286046999.8,N
1662171075.1,286047000.3,N
1662171076.0,286047000.3,N
1662171095.8,286046999.7,N
1662171115.7,286046999.7,N
1662171135.5,286047002.7,N
1662171155.3,286047002.2,N
1662171175.2,286047002.4,N
1662171195.0,286047002.1,N
1662171195.9,286047002.1,N
1662171215.7,286047002.1,N
1662171235.6,286047002.1,N
1662171255.4,286047002.3,N
1662171275.3,286047002.5,N
1662171295.1,286047002.5,N
1662171296.0,286047002.5,N
1662171315.8,286047001.7,N
1662171335.7,286047002.0,N
1662171355.5,286047004.2,Y
1662171375.4,286047000.6,P
1662171395.2,286046999.7,N
1662171415.0,286047000.0,N
1662171415.9,286047000.0,N
1662171435.8,286046998.9,N
1662171455.6,286046996.9,Y
1662171475.4,286046999.5,P
1662171495.3,286046996.5,P
1662171515.1,286047000.3,N
1662171535.9,286047000.9,N
1662171555.7,286047000.2,N
1662171575.5,286047000.1,N
1662171595.4,286047000.2,N
1662171615.2,286047001.9,N
1662171635.0,286047001.5,N
1662171635.9,286047001.5,N
1662171655.8,286047001.8,N
1662171675.6,286047002.8,N
1662171695.5,286046999.8,N
1662171715.3,286046999.9,N
1662171735.1,286047002.3,N
1662171755.9,286047000.2,N
1662171775.7,286047002.3,N
1662171795.5,286046999.7,N
1662171815.4,286047002.7,N
1662171835.2,286047002.1,N
1662171855.1,286047002.5,N
1662171856.0,286047002.5,N
1662171875.8,286046999.9,N
1662171895.6,286047001.2,N
1662171915.5,286047002.8,N
1662171935.3,286047000.2,N
1662171955.1,286047002.3,N
1662171975.9,286047002.2,N
1662171995.7,286047002.1,N
1662172015.6,286047001.9,N
1662172035.4,286046999.8,N
1662172055.2,286047002.8,N
1662172075.1,286047002.3,N
1662172076.0,286047002.3,N
1662172095.8,286047002.3,N
1662172115.7,286047001.5,N
1662172135.5,286047004.4,Y
1662172155.3,286047002.7,P
1662172175.2,286047000.3,N
1662172195.0,286046998.3,N
1662172195.9,286046998.3,N
1662172215.7,286047001.2,N
1662172235.6,286046996.9,N
1662172255.4,286046998.1,N
1662172275.3,286046999.6,N
1662172295.1,286046998.9,N
1662172296.0,286046998.9,N
1662172315.8,286046998.8,N
1662172335.7,286046999.2,N
1662172355.5,286047001.0,N
1662172375.4,286047000.3,N
1662172395.2,286047000.9,N
1662172415.0,286046998.4,N
1662172415.9,286046998.4,N
1662172435.8,286047000.6,N
1662172455.6,286047001.2,N
1662172475.4,286046998.6,N
1662172495.3,286046998.8,N
1662172515.1,286046999.5,N
1662172535.9,286046998.5,N
1662172555.7,286047000.5,N
1662172575.5,286047000.7,N
1662172595.4,286046998.5,N
1662172615.2,286046998.2,N
1662172635.1,286046999.3,N
1662172636.0,286046999.3,N
1662172655.8,286047000.5,N
1662172675.6,286047000.5,N
1662172695.5,286046999.9,N
1662172715.3,286047000.0,N
1662172735.1,286047000.7,N
1662172755.9,286047000.4,N
1662172775.7,286047000.8,N
1662172795.6,286047000.8,N
1662172815.4,286047000.5,N
1662172835.2,286046999.2,N
1662172855.1,286046996.7,Y
1662172856.0,286046996.7,P
1662172875.8,286046996.7,N
1662172895.6,286046999.3,N
1662172915.5,286047000.4,N
1662172935.3,286047000.2,N
1662172955.2,286047000.1,N
1662172975.9,286047002.4,N
1662172995.7,286047002.4,N
1662173015.6,286047004.4,N
1662173035.4,286047003.2,N
1662173055.2,286047003.9,N
1662173075.1,286047001.7,N
1662173076.0,286047001.7,N
1662173095.8,286047004.4,N
1662173115.7,286047003.9,N
1662173135.5,286047003.6,N
1662173155.3,286047003.8,N
1662173175.2,286047001.3,N
1662173195.0,286047004.2,N
1662173195.9,286047004.2,N
1662173215.8,286047001.6,N
1662173235.6,286047001.3,N
1662173255.4,286047001.5,N
1662173275.3,286047000.2,N
1662173295.1,286047000.5,N
1662173296.0,286047000.5,N
1662173315.8,286047000.8,N
1662173335.7,286046999.9,N
1662173355.5,286046999.9,N
1662173375.4,286046999.0,N
1662173395.2,286046998.2,N
1662173415.0,286046998.2,N
1662173415.9,286046998.2,N
1662173435.8,286046997.2,N
1662173455.6,286046999.6,N
1662173475.5,286046998.9,N
1662173495.3,286046999.3,N
1662173515.1,286047001.2,N
1662173535.9,286046998.9,N
1662173555.7,286046999.3,N
1662173575.6,286047000.8,N
1662173595.4,286047000.3,N
1662173615.2,286047002.2,N
1662173635.1,286047000.8,N
1662173636.0,286047000.8,N
1662173655.8,286047000.2,N
1662173675.7,286047002.7,N
1662173695.5,286046999.9,N
1662173715.4,286047002.8,N
1662173735.2,286047004.4,N
1662173755.0,286047004.2,N
1662173755.9,286047004.2,N
1662173775.8,286047004.3,N
1662173795.6,286047003.4,N
1662173815.5,286047004.3,N
1662173835.3,286047001.6,N
1662173855.1,286047001.3,N
1662173875.9,286047004.3,N
1662173895.7,286047004.2,N
1662173915.5,286047003.5,N
1662173935.4,286047005.9,N
1662173955.2,286047003.2,N
1662173975.1,286047003.6,N
1662173976.0,286047003.6,N
1662174025.8,286047004.0,E
